Fredericksburg, VA

5:35 AM EST on November 25, 2017 (GMT -0500)
Shannon

Weather History for KEZF - July, 2013

Change the Weather History Date:

Friday, July 12, 2013

  Actual Average (KNYG) Record (KNYG)
Temperature  
Mean Temperature 72 °F -  
Max Temperature 77 °F 83 °F 95 °F (2017)
Min Temperature 68 °F 64 °F 55 °F (2002)
Cooling Degree Days 8    
Growing Degree Days 22 (Base 50)    
Moisture  
Dew Point 69 °F    
Average Humidity 90    
Maximum Humidity 99    
Minimum Humidity 76    
Precipitation  
Precipitation 0.16 in - - ()
Sea Level Pressure  
Sea Level Pressure 29.96 in    
Wind  
Wind Speed - (North)    
Max Wind Speed -    
Max Gust Speed -    
Visibility 10 miles    
Events Rain    
Averages and records for this station are not official NWS values.
T = Trace of Precipitation, MM = Missing Value Source: NWS Daily Summary

Daily Weather History Graph

Daily Weather History Graph

Search for Another Location

Airport or City:

Trip Planner

Search our weather history database for the weather conditions in past years. The results will help you decide how hot, cold, wet, or windy it might be!

Date:

Astronomy

Jul. 12, 2013 Rise Set
Actual Time 5:56 AM EDT 8:34 PM EDT
Civil Twilight 5:25 AM EDT 9:04 PM EDT
Nautical Twilight 4:47 AM EDT 9:43 PM EDT
Astronomical Twilight 4:03 AM EDT 10:26 PM EDT
Moon 10:07 AM EDT (7/12) 10:48 PM EDT (7/12)
Length of Visible Light 15h 39m
Length of Day
14h 37m
Waxing Crescent, 17% of the Moon is Illuminated
Jul 12
Waxing Crescent
Jul 15
First Quarter
Jul 22
Full
Jul 29
Last Quarter
Aug 6
New

Hourly Weather History & Observations

Time (EDT) Temp. Dew Point Humidity Pressure Visibility Wind Dir Wind Speed Gust Speed Precip Events Conditions
12:15 AM 76.1 °F 73.9 °F 93% 29.89 in 10.0 mi North - - N/A   Unknown
12:35 AM 76.1 °F 74.1 °F 94% 29.91 in 10.0 mi North - - N/A   Unknown
12:55 AM 76.1 °F 74.3 °F 94% 29.91 in 10.0 mi North - - N/A Rain Rain
1:15 AM 76.1 °F 74.3 °F 94% 29.91 in 10.0 mi North - - N/A   Light Drizzle
1:35 AM 76.1 °F 74.7 °F 95% 29.91 in 10.0 mi North - - N/A   Unknown
1:55 AM 76.1 °F 74.7 °F 95% 29.91 in 10.0 mi North - - N/A   Drizzle
2:15 AM 73.2 °F 70.5 °F 91% 29.91 in 10.0 mi North - - N/A Rain Light Rain
2:35 AM 69.1 °F 67.1 °F 93% 29.92 in 10.0 mi North - - 0.01 in Rain Light Rain
2:55 AM 68.0 °F 66.2 °F 94% 29.93 in 10.0 mi North - - 0.01 in   Unknown
3:15 AM 68.0 °F 65.7 °F 92% 29.91 in 10.0 mi North - - N/A   Unknown
3:35 AM 68.2 °F 66.2 °F 93% 29.90 in 10.0 mi North - - 0.01 in Rain Light Rain
3:55 AM 68.2 °F 66.4 °F 94% 29.91 in 10.0 mi North - - 0.01 in Rain Light Rain
4:15 AM 68.2 °F 66.6 °F 95% 29.90 in 10.0 mi North - - N/A Rain Rain
4:35 AM 68.0 °F 67.3 °F 98% 29.91 in 10.0 mi North - - 0.02 in Rain Light Rain
4:55 AM 68.2 °F 67.6 °F 98% 29.90 in 10.0 mi North - - 0.02 in Rain Light Rain
5:15 AM 68.4 °F 68.0 °F 99% 29.91 in 10.0 mi North - - N/A   Overcast
5:35 AM 68.9 °F 68.4 °F 98% 29.91 in 10.0 mi North - - N/A   Overcast
5:55 AM 69.1 °F 68.4 °F 98% 29.92 in 10.0 mi North - - N/A Rain Light Rain
6:15 AM 69.3 °F 68.4 °F 97% 29.94 in 10.0 mi North - - N/A   Drizzle
6:35 AM 68.9 °F 68.5 °F 99% 29.95 in 7.0 mi North - - N/A Rain Light Rain
6:55 AM 68.9 °F 68.4 °F 98% 29.95 in 3.0 mi North - - 0.06 in Rain Rain
7:15 AM 68.5 °F 68.4 °F 99% 29.96 in 7.0 mi North - - 0.01 in Rain Rain
7:35 AM 68.5 °F 68.0 °F 98% 29.95 in 5.0 mi North - - 0.03 in Rain Rain
7:55 AM 68.4 °F 68.0 °F 99% 29.93 in 5.0 mi North - - 0.05 in Rain Rain
8:15 AM 68.4 °F 68.0 °F 99% 29.94 in 5.0 mi North - - 0.01 in Rain Light Rain
8:35 AM 68.4 °F 68.0 °F 99% 29.94 in 10.0 mi North - - 0.01 in Rain Rain
8:55 AM 68.9 °F 68.0 °F 97% 29.94 in 10.0 mi North - - 0.01 in   Light Drizzle
9:15 AM 69.1 °F 68.4 °F 98% 29.94 in 10.0 mi North - - N/A   Mostly Cloudy
9:35 AM 69.4 °F 68.2 °F 96% 29.94 in 10.0 mi North - - N/A   Mostly Cloudy
9:55 AM 69.8 °F 68.0 °F 94% 29.95 in 10.0 mi North - - N/A   Overcast
10:15 AM 70.5 °F 68.5 °F 93% 29.96 in 10.0 mi North - - N/A   Mostly Cloudy
10:35 AM 70.7 °F 68.7 °F 93% 29.97 in 10.0 mi North - - N/A   Overcast
10:55 AM 71.1 °F 69.1 °F 93% 29.98 in 10.0 mi North - - N/A   Overcast
11:15 AM 71.1 °F 68.9 °F 93% 29.98 in 10.0 mi North - - N/A   Overcast
11:35 AM 71.6 °F 69.3 °F 92% 29.99 in 10.0 mi North - - N/A   Overcast
11:55 AM 72.0 °F 69.8 °F 93% 29.98 in 7.0 mi North - - N/A Rain Rain
12:15 PM 73.0 °F 70.7 °F 92% 29.97 in 7.0 mi North - - N/A   Light Drizzle
12:35 PM 74.5 °F 70.2 °F 86% 29.97 in 10.0 mi North - - N/A   Scattered Clouds
12:55 PM 75.0 °F 70.0 °F 84% 29.97 in 10.0 mi North - - N/A   Mostly Cloudy
1:15 PM 73.9 °F 69.3 °F 85% 29.97 in 10.0 mi North - - N/A   Overcast
2:15 PM 75.4 °F 70.0 °F 83% 29.98 in - North - - N/A   Unknown
2:16 PM 75.2 °F 69.8 °F 83% 29.98 in 10.0 mi North - - N/A   Unknown
2:35 PM 74.7 °F 69.6 °F 84% 29.98 in 10.0 mi North - - N/A   Overcast
2:55 PM 74.3 °F 68.9 °F 83% 29.99 in 10.0 mi North - - N/A   Overcast
3:15 PM 74.8 °F 69.1 °F 82% 29.99 in 10.0 mi North - - N/A   Overcast
3:35 PM 74.8 °F 69.4 °F 83% 29.99 in 10.0 mi North - - N/A   Overcast
3:55 PM 75.4 °F 69.3 °F 81% 29.98 in 10.0 mi North - - N/A   Mostly Cloudy
4:15 PM 76.1 °F 69.6 °F 80% 29.98 in 10.0 mi North - - N/A   Scattered Clouds
4:35 PM 76.8 °F 70.2 °F 80% 29.97 in 10.0 mi North - - N/A   Mostly Cloudy
4:55 PM 77.2 °F 69.8 °F 78% 29.97 in 10.0 mi North - - N/A   Overcast
5:15 PM 76.8 °F 69.8 °F 79% 29.98 in 10.0 mi North - - N/A   Mostly Cloudy
5:35 PM 76.6 °F 69.6 °F 79% 29.98 in 10.0 mi North - - N/A   Mostly Cloudy
5:55 PM 77.0 °F 69.1 °F 76% 29.98 in 10.0 mi North - - N/A   Overcast
6:15 PM 75.9 °F 69.1 °F 79% 29.99 in 10.0 mi North - - N/A   Overcast
6:35 PM 75.7 °F 69.4 °F 81% 29.99 in 10.0 mi North - - N/A   Overcast
6:55 PM 75.9 °F 69.8 °F 81% 29.99 in 10.0 mi North - - N/A   Overcast
7:15 PM 75.6 °F 69.6 °F 82% 30.00 in 10.0 mi North - - N/A   Overcast
7:35 PM 75.4 °F 69.8 °F 83% 30.00 in 10.0 mi North - - N/A   Unknown
7:55 PM 75.2 °F 69.8 °F 83% 30.00 in 10.0 mi North - - N/A   Overcast
8:15 PM 74.5 °F 69.6 °F 85% 30.00 in 10.0 mi North - - N/A   Unknown
8:35 PM 73.9 °F 69.4 °F 86% 30.01 in 10.0 mi North - - N/A   Unknown
8:55 PM 73.6 °F 69.4 °F 87% 30.01 in 10.0 mi North - - N/A   Unknown
9:15 PM 73.2 °F 69.4 °F 88% 30.02 in 10.0 mi North - - N/A   Unknown
9:35 PM 72.5 °F 69.3 °F 90% 30.02 in 10.0 mi North - - N/A   Unknown
9:55 PM 72.7 °F 69.1 °F 88% 30.03 in 10.0 mi North - - N/A   Unknown
10:15 PM 72.5 °F 69.3 °F 90% 30.03 in 10.0 mi North - - N/A   Unknown
10:35 PM 72.1 °F 69.1 °F 90% 30.03 in 10.0 mi North - - N/A   Unknown
10:55 PM 71.8 °F 68.9 °F 91% 30.03 in 10.0 mi North - - N/A   Unknown
11:15 PM 71.8 °F 69.1 °F 91% 30.04 in 10.0 mi North - - N/A   Unknown
11:35 PM 71.8 °F 69.1 °F 91% 30.04 in 10.0 mi North - - N/A   Unknown
11:55 PM 71.6 °F 69.1 °F 92% 30.04 in 10.0 mi North - - N/A   Unknown